EHI
1 0 0 0 0 0 0 0 0 0 0 0 0 0 0 0 0 0 0 0 0 0 0 0 0 0 0 0 0 0 0 0 0 0 0 0 0 0 0 0 0 0 0
2 1 0 0 0 0 0 0 0 0 0 0 0 0 0 0 0 0 0 0 0 0 0 0 0 0 0 0 0 0 0 0 0 0 0 0 0 0 0 0 0 0 0
2 1 0 0 0 0 0 0 0 0 0 0 0 0 0 0 0 0 0 0 0 0 0 0 0 0 0 0 0 0 0 0 0 0 0 0 0 0 0 0 0 0 0
1 0 0 0 0 0 0 0 0 0 0 0 0 0 0 0 0 0 0 0 0 0 0 0 0 0 0 0 0 0 0 0 0 0 0 0 0 0 0 0 0 0 0
0 0 0 0 0 0 0 0 0 0 0 0 0 0 0 0 0 0 0 0 0 0 0 0 0 0 0 0 0 0 0 0 0 0 0 0 0 0 0 0 0 0 0
0 0 0 0 0 0 0 0 0 0 0 0 0 0 0 0 0 0 0 0 0 0 0 0 0 0 0 0 0 0 0 0 0 0 0 0 0 0 0 0 0 0 0
0 0 0 0 0 0 0 0 0 0 0 0 0 0 0 0 0 0 0 0 0 0 0 0 0 0 0 0 0 0 0 0 0 0 0 0 0 0 0 0 0 0 0
0 0 0 0 0 0 0 0 0 0 0 0 0 0 0 0 0 0 0 0 0 0 0 0 0 0 0 0 0 0 0 0 0 0 0 0 0 0 0 0 0 0 0
1 0 0 0 0 0 0 0 0 0 0 0 0 0 0 0 0 0 0 0 0 0 0 0 0 0 0 0 0 0 0 0 0 0 0 0 0 0 0 0 0 0 0
4 2 0 0 0 0 0 0 0 0 0 0 0 0 0 0 0 0 0 0 0 0 0 0 0 0 0 0 0 0 0 0 0 0 0 0 0 0 0 0 0 0 0
15 8 2 0 0 0 0 0 0 0 0 0 0 0 0 0 0 0 0 0 0 0 0 0 0 0 0 0 0 0 0 0 0 0 0 0 0 0 0 0 0 0 0
27 20 10 4 2 1 0 0 0 0 0 0 0 0 0 0 0 0 0 0 0 0 0 0 0 0 0 0 0 0 0 0 0 0 0 0 0 0 0 0 0 0 0
29 28 22 14 9 6 2 0 0 0 0 0 0 0 0 0 0 0 0 0 0 0 0 0 0 0 0 0 0 0 0 0 0 0 0 0 0 0 0 0 0 0 0
25 27 25 21 19 14 6 1 0 0 0 0 0 0 0 0 0 0 0 0 0 0 0 0 0 0 0 0 0 0 0 0 0 0 0 0 0 0 0 0 0 0 0
21 21 18 17 19 17 9 3 2 1 0 0 0 0 0 0 0 0 0 0 0 0 0 0 0 0 0 0 0 0 0 0 0 0 0 0 0 0 0 0 0 0 0
15 15 12 10 12 14 11 6 3 1 0 0 0 0 0 0 0 0 0 0 0 0 0 0 0 0 0 0 0 0 0 0 0 0 0 0 0 0 0 0 0 0 0
8 10 9 6 7 10 11 8 3 1 0 0 0 0 0 0 0 0 0 0 0 0 0 0 0 0 0 0 0 0 0 0 0 0 0 0 0 0 0 0 0 0 0
3 5 7 5 4 7 9 7 4 1 0 0 0 0 0 0 0 0 0 0 0 0 0 0 0 0 0 0 0 0 0 0 0 0 0 0 0 0 0 0 0 0 0
0 2 4 6 5 5 7 7 5 2 1 1 0 0 0 0 0 0 0 0 0 0 0 0 0 0 0 0 0 0 0 0 0 0 0 0 0 0 0 0 0 0 0
0 1 3 5 4 5 6 6 6 4 2 1 0 0 0 0 0 0 0 0 0 0 0 0 0 0 0 0 0 0 0 0 0 0 0 0 0 0 0 0 0 0 0
0 1 3 4 3 3 4 5 5 4 3 1 0 0 0 0 0 0 0 0 0 0 0 0 0 0 0 0 0 0 0 0 0 0 0 0 0 0 0 0 0 0 0
0 2 5 6 4 4 6 5 4 4 3 2 1 1 1 0 0 0 0 0 0 0 0 0 0 0 0 0 0 0 0 0 0 0 0 0 0 0 0 0 0 0 0
1 3 5 7 7 9 12 10 7 5 4 3 2 2 1 0 0 0 0 0 0 0 0 0 0 0 0 0 0 0 0 0 0 0 0 0 0 0 0 0 0 0 0
1 2 4 5 8 11 13 11 7 5 3 2 1 1 1 0 0 0 0 0 0 0 0 0 0 0 0 0 0 0 0 0 0 0 0 0 0 0 0 0 0 0 0
0 1 1 3 5 6 8 8 5 3 2 1 1 0 0 0 0 0 0 0 0 0 0 0 0 0 0 0 0 0 0 0 0 0 0 0 0 0 0 0 0 0 0
0 0 0 1 2 3 5 6 5 2 1 1 0 0 0 0 0 0 0 0 0 0 0 0 0 0 0 0 0 0 0 0 0 0 0 0 0 0 0 0 0 0 0
Wind_Speed
12 15 17 17 16 15 14 13 13 12 12 11 11 12 13 14 14 14 15 15 17 18 19 19 18 18 17 17 16 15 14 13 14 14 14 14 14 15 15 15 12 9 14
16 17 17 16 16 15 14 14 13 12 11 11 12 13 13 14 14 15 15 16 17 18 19 18 18 17 16 16 15 13 11 10 9 8 9 11 12 14 15 15 13 8 13
18 17 15 15 15 15 15 14 12 12 11 11 12 13 14 14 14 15 15 16 17 18 18 17 17 16 15 14 13 11 8 6 5 3 1 5 8 13 14 14 14 14 13
18 15 14 15 15 15 15 14 12 12 11 12 12 13 14 14 14 15 15 16 16 17 16 16 15 14 13 13 11 9 7 7 8 6 5 7 7 12 14 13 13 13 13
16 13 15 15 15 15 14 13 12 12 11 12 12 13 14 14 14 15 15 15 15 15 15 14 13 13 12 11 10 8 7 9 9 5 7 8 6 11 13 13 13 13 13
14 14 15 14 15 14 13 13 12 12 11 12 13 13 14 14 14 14 14 13 13 13 13 12 12 11 11 10 9 7 7 9 6 6 7 7 5 10 12 12 12 13 13
14 14 14 15 15 14 13 12 11 11 11 12 12 13 14 14 14 13 13 12 11 11 11 11 11 10 10 9 8 7 9 11 3 6 6 6 6 10 11 11 11 12 12
14 14 13 14 14 13 12 11 11 11 11 11 12 13 14 14 13 12 12 11 10 10 9 9 9 8 8 7 6 6 8 8 5 5 6 6 7 9 9 9 10 10 10
13 13 11 10 11 12 12 11 10 9 10 10 11 12 12 12 12 11 10 10 9 8 8 7 7 7 6 5 5 5 6 9 6 1 6 5 6 7 7 7 7 8 8
9 11 11 10 10 9 9 11 11 10 10 10 10 10 10 10 10 10 9 8 8 7 6 6 5 4 3 2 1 3 6 8 4 1 4 4 6 4 4 4 5 5 6
7 8 9 10 9 9 9 10 10 10 9 9 8 9 9 6 6 6 8 8 7 6 5 4 3 2 2 3 3 4 5 3 2 2 3 6 5 2 1 2 2 3 3
6 6 6 8 8 8 8 8 6 6 6 6 6 6 5 4 4 7 9 8 7 6 5 5 5 5 5 3 4 5 3 4 2 1 4 8 5 3 2 2 2 1 1
6 5 5 6 7 7 6 5 4 4 4 5 7 7 3 4 4 5 4 4 4 5 4 5 5 4 4 2 2 3 3 1 2 1 4 7 6 4 5 5 5 4 3
7 6 5 6 6 7 6 4 4 3 3 2 4 4 3 2 2 3 3 5 4 4 4 4 4 5 4 4 4 4 3 2 2 1 4 8 7 6 7 8 7 7 7
6 7 6 6 6 6 5 4 4 4 4 3 3 2 3 3 2 2 2 2 2 2 3 3 3 3 2 2 2 3 3 3 3 3 3 9 10 9 9 10 10 10 9
6 7 6 6 6 5 4 4 3 3 3 3 4 4 3 3 3 2 2 2 2 1 2 2 3 3 2 1 2 3 4 4 4 4 3 6 11 11 11 12 13 12 12
7 7 7 6 6 6 5 5 3 3 4 3 4 4 3 3 3 2 1 1 2 2 2 2 3 1 1 2 3 4 4 4 4 4 4 4 5 11 13 14 14 14 14
7 8 7 7 7 6 5 5 3 3 4 3 3 3 4 3 3 2 1 1 2 1 1 1 2 2 2 3 3 3 3 3 4 5 4 4 3 4 9 14 14 14 14
6 8 8 7 7 7 6 4 4 3 3 3 3 3 3 3 3 2 2 2 2 1 1 1 2 2 2 3 3 3 3 3 4 5 5 5 5 4 4 7 12 12 12
5 6 7 7 7 6 5 4 3 2 3 2 2 3 3 2 2 2 2 2 2 1 2 2 3 3 2 3 3 4 4 5 5 6 6 5 4 4 3 3 3 6 10
4 5 6 7 7 5 4 4 4 3 3 2 2 3 3 2 2 2 1 1 1 2 2 3 2 3 3 2 2 4 5 7 8 7 5 4 3 2 1 1 1 1 2
6 5 5 6 6 6 4 4 3 3 3 2 2 3 3 2 1 1 0 1 1 1 2 3 2 2 2 2 2 2 4 4 4 4 2 1 1 1 0 0 0 0 0
6 6 4 5 5 5 5 4 3 3 2 2 3 3 3 2 1 1 0 0 1 1 2 2 2 2 3 2 2 3 3 3 3 3 1 0 1 1 1 1 1 1 2
6 5 5 4 4 4 5 5 6 4 3 4 3 3 3 3 2 2 2 1 1 1 2 2 2 2 2 3 3 3 3 3 2 3 3 2 1 1 1 1 2 3 4
7 6 5 5 4 4 4 5 5 4 3 3 3 4 3 3 3 2 2 2 2 1 2 2 3 3 2 2 2 2 3 2 3 3 3 3 2 1 1 2 2 4 5
7 6 5 5 5 4 4 4 4 5 5 5 4 3 2 2 2 3 2 1 1 1 2 2 2 3 3 3 3 2 2 2 2 2 3 2 2 1 1 3 4 4 5
Wind_Direction
129 138 143 140 135 132 128 123 116 110 106 103 97 90 84 77 74 72 72 75 80 83 85 84 83 82 80 79 78 78 78 81 82 80 75 66 59 56 51 51 61 55 57
131 138 144 141 139 135 129 122 116 111 108 106 101 94 88 82 78 75 75 77 81 83 84 83 82 81 81 80 79 79 81 83 82 82 86 73 60 57 56 56 56 55 55
129 137 143 141 140 135 129 124 119 114 111 108 105 97 93 87 83 80 78 78 80 82 82 82 82 81 81 80 78 77 74 63 44 12 69 94 67 58 59 58 54 53 51
129 139 143 141 140 136 132 127 122 117 114 112 108 102 98 93 88 85 81 81 81 82 82 81 81 81 81 79 77 73 54 23 360 4 71 73 65 60 57 55 52 49 47
130 139 135 141 139 136 133 128 123 118 115 115 112 107 102 97 93 90 87 86 86 86 84 82 81 81 80 79 75 62 30 5 347 36 75 76 66 61 57 54 53 50 48
129 126 134 139 137 136 133 129 125 119 116 117 115 112 108 103 99 97 94 93 92 91 89 86 82 80 79 77 69 48 17 360 355 61 69 73 66 63 61 57 53 50 48
126 125 137 137 138 136 133 130 126 121 119 119 119 117 113 109 106 104 101 99 97 95 92 88 84 80 76 72 61 34 7 347 43 76 79 73 66 66 63 58 53 50 48
122 127 135 137 137 135 132 129 125 122 121 121 121 120 117 115 113 111 108 104 100 97 92 88 84 80 75 69 55 25 358 350 5 80 93 87 74 69 66 61 57 52 47
123 130 137 140 138 135 130 125 121 118 115 116 119 119 118 121 121 120 115 110 105 101 97 92 86 81 75 66 49 13 342 335 330 37 100 99 87 75 70 65 60 55 51
126 137 144 149 146 142 133 125 119 113 112 111 114 120 125 129 132 132 122 114 113 111 109 103 96 90 87 82 42 334 319 319 291 106 98 112 101 83 76 77 66 60 56
134 143 150 151 151 149 142 134 126 121 120 122 123 138 145 157 152 145 128 127 126 127 130 132 135 158 184 204 225 261 294 278 304 84 106 127 123 113 114 117 93 76 67
151 148 147 147 148 145 143 147 149 148 150 169 158 174 199 180 128 129 136 144 151 158 166 179 196 221 229 216 224 245 263 273 301 163 142 147 151 183 215 212 199 180 132
155 146 139 136 139 137 141 156 154 153 166 192 166 186 185 119 124 135 153 154 172 186 195 200 212 229 228 193 183 228 240 322 312 291 156 163 174 211 236 234 227 223 221
159 156 148 138 139 141 146 151 148 148 167 171 161 176 152 134 151 171 169 175 183 190 195 187 219 218 213 207 213 239 245 222 237 223 172 181 190 216 239 242 240 235 230
158 159 158 152 148 148 147 150 154 157 164 162 150 179 154 141 174 191 199 165 202 189 170 203 243 247 224 236 241 246 263 266 261 247 189 197 202 213 231 243 246 244 238
163 162 161 162 158 152 151 155 162 162 159 159 154 184 182 158 168 183 228 172 214 199 194 202 239 250 242 245 267 272 259 253 249 250 225 210 215 219 228 238 245 249 246
170 167 167 168 164 163 165 169 170 169 161 166 160 181 181 176 168 178 233 194 215 209 217 229 277 301 303 289 274 268 262 257 259 259 251 225 212 220 227 236 242 247 250
172 171 168 169 169 173 174 177 173 179 167 166 162 172 179 184 170 170 198 236 246 229 208 225 258 277 269 262 263 271 273 267 258 260 260 251 230 216 221 230 239 245 250
173 165 163 166 174 177 176 174 176 176 161 156 157 158 168 177 171 168 197 231 251 249 232 238 243 249 267 273 274 277 281 280 272 267 260 256 248 233 213 217 227 238 247
165 159 161 165 173 169 165 165 165 163 152 150 151 150 147 156 166 170 191 238 252 248 247 246 246 245 246 261 278 277 270 264 261 256 252 251 249 238 222 213 211 233 240
158 162 165 166 173 165 165 169 167 171 170 162 148 136 136 141 150 160 192 235 247 245 250 256 257 260 257 250 275 287 271 253 247 244 234 231 245 242 208 207 199 204 236
165 170 170 170 171 171 167 164 154 147 149 146 143 128 114 107 103 122 174 256 262 263 273 273 272 267 261 232 223 283 300 303 277 249 223 202 248 11 26 52 127 309 320
165 171 174 171 165 161 150 132 113 105 109 135 154 142 122 108 91 88 73 324 311 287 276 282 284 272 269 266 220 220 254 272 327 326 313 108 37 18 354 23 46 35 45
161 150 152 157 153 150 147 150 155 161 170 171 153 137 126 110 87 59 37 16 342 329 303 292 298 292 278 274 275 244 233 240 267 301 319 324 336 326 314 16 52 53 58
150 149 151 152 151 147 148 155 164 163 150 125 120 131 134 124 110 84 42 17 357 346 333 330 324 311 289 270 266 273 275 270 240 239 272 291 304 301 347 47 59 60 58
138 143 153 156 157 152 151 150 156 150 136 132 139 142 131 123 122 111 73 26 6 1 349 337 325 315 302 290 282 268 253 254 254 245 250 262 273 295 22 45 60 61 57